Location: Juzet
(42.9779°N, 0.7597°E)
Time: 18:02:47
(UTC+00:00)

Meteor 1-11 Rocket - Pass Details

Date: 14 July 2020
Orbit: 832 x 915 km, 81.2° (Epoch: 13 August)

Event Time Altitude Azimuth Distance (km) Brightness Sun altitude
Exits shadow 02:04:15 30° 175° (S) 1,446 4.5 -19.6°
Maximum altitude 02:07:01 73° 97° (E) 874 3.8 -19.4°
Drops below altitude 10° 02:12:32 10° 14° (NNE) 2,450 7.2 -18.8°
Sets 02:14:57 0° 13° (NNE) 3,392 8.2 -18.6°
